Вернуться в каталог

COSMOS 2251 DEB

АктивенLEO
NORAD 33842·DEBRIS·🇷🇺 Russia

Запущен Jun 16, 1993 с Plesetsk Cosmodrome

Loading…

Ближайшие Пролёты (ближайшие 24 часа)

TLE

СвежийSource: Space-Track

Эпоха: Sep 14, 2026, 11:15 UTC

1 33842U 93036CK  26257.46903072  .00000603  00000-0  18495-3 0  9993
2 33842  74.0316  67.6092 0046057 108.7335 251.8828 14.43177997923147

Отслеживайте COSMOS 2251 DEB в реальном времени с AllMySat

Download on the App Store